Location: London
(51.5166°N, 0.1046°W)
Time: 02:42:15
(UTC+01:00)

ISS - Visible Passes

Search period start: 01 August 2014 00:00
Search period end: 11 August 2014 00:00
Orbit: 411 x 419 km, 51.6° (Epoch: 31 July)

Date Brightness Start Highest point End Pass type
(mag) Time Alt. Az. Time Alt. Az. Time Alt. Az.
01 Aug -3.4 01:44:16 88° NW 01:44:18 89° N 01:47:41 10° E visible
01 Aug -3.4 03:17:40 10° W 03:21:02 74° SSW 03:24:24 10° ESE visible
02 Aug -1.5 00:57:26 23° E 00:57:26 23° E 00:58:49 10° E visible
02 Aug -3.4 02:30:20 25° W 02:32:12 86° S 02:35:34 10° E visible
02 Aug -2.6 04:05:38 10° W 04:08:43 34° SSW 04:11:48 10° SE visible
02 Aug -1.3 22:27:39 10° SSW 22:28:31 15° S 22:28:31 15° S visible
03 Aug -2.5 01:44:17 44° E 01:44:17 44° E 01:46:43 10° E visible
03 Aug -3.1 03:17:17 14° W 03:19:58 46° SSW 03:23:12 10° SE visible
03 Aug -1.5 21:39:38 10° S 21:41:37 15° SE 21:43:36 10° ESE visible
03 Aug -3.2 23:14:31 10° WSW 23:17:47 54° SSE 23:18:02 52° SE visible
04 Aug -1.3 02:33:23 19° ESE 02:33:23 19° ESE 02:34:29 10° ESE visible
04 Aug -1.8 04:06:33 17° WSW 04:07:25 18° SW 04:09:48 10° S visible
04 Aug -2.9 22:25:51 10° SW 22:29:00 39° SSE 22:32:10 10° E visible
05 Aug -3.1 00:02:13 10° W 00:05:07 64° W 00:05:07 64° W visible
05 Aug -2.3 21:37:20 10° SSW 21:40:15 28° SSE 21:43:11 10° E visible
05 Aug -3.4 23:13:21 10° WSW 23:16:42 80° SSE 23:18:19 28° E visible
06 Aug -1.2 00:50:04 10° W 00:51:11 19° W 00:51:11 19° W visible
06 Aug -3.4 22:24:31 10° WSW 22:27:50 66° SSE 22:31:10 10° E visible
07 Aug -3.0 00:01:11 10° W 00:04:04 63° W 00:04:04 63° W visible
07 Aug -3.1 21:35:45 10° SW 21:38:59 50° SSE 21:42:15 10° E visible
07 Aug -3.3 23:12:17 10° W 23:15:38 86° N 23:16:51 37° E visible
08 Aug -0.8 00:49:01 10° W 00:49:42 15° W 00:49:42 15° W visible
08 Aug -3.3 22:23:22 10° W 22:26:43 89° SSE 22:29:34 14° E visible
09 Aug -2.4 00:00:06 10° W 00:02:25 41° W 00:02:25 41° W visible
09 Aug -3.3 21:34:29 10° WSW 21:37:49 77° SSE 21:41:10 10° E visible
09 Aug -3.4 23:11:12 10° W 23:14:33 89° S 23:15:07 59° E visible
10 Aug -3.3 22:22:16 10° W 22:25:37 86° N 22:27:47 20° E visible
10 Aug -1.2 23:59:00 10° W 00:00:15 20° W 00:00:00 18° W visible
